#timestamp,LO_Frequency,Hit,StdDev 
1678802415.5,286047000.5,N
1678802435.3,286046998.4,N
1678802455.2,286046998.1,N
1678802475.0,286046999.0,N
1678802475.9,286046999.0,N
1678802495.8,286047001.2,N
1678802515.6,286047000.6,N
1678802535.4,286047002.2,N
1678802555.3,286047000.2,N
1678802575.1,286047001.5,N
1678802595.8,286047002.1,N
1678802615.7,286047002.5,N
1678802635.5,286046998.6,N
1678802655.4,286046999.2,N
1678802675.2,286046999.4,N
1678802695.0,286046998.3,N
1678802695.9,286046998.3,N
1678802715.8,286047000.5,N
1678802735.6,286047000.5,N
1678802755.4,286046999.9,N
1678802775.3,286047000.8,N
1678802795.1,286046998.7,N
1678802815.9,286046999.0,N
1678802835.7,286046999.3,N
1678802855.5,286046999.3,N
1678802875.4,286046998.3,N
1678802895.2,286047001.1,N
1678802915.0,286047000.3,N
1678802916.0,286047000.3,N
1678802935.8,286047000.5,N
1678802955.6,286047001.2,N
1678802975.5,286046998.1,N
1678802995.3,286047000.4,N
1678803015.1,286047000.7,N
1678803035.9,286047000.9,N
1678803055.7,286046998.2,N
1678803075.5,286046998.1,N
1678803095.4,286046998.5,N
1678803115.2,286047000.8,N
1678803135.1,286047000.3,N
1678803136.0,286047000.3,N
1678803155.8,286046998.2,N
1678803175.6,286046998.8,N
1678803195.5,286046999.2,N
1678803215.3,286046996.9,Y
1678803235.2,286046996.5,P
1678803255.9,286046997.0,N
1678803275.7,286046998.5,N
1678803295.6,286047000.5,N
1678803315.4,286047000.4,N
1678803335.2,286047002.2,N
1678803355.1,286047002.6,N
1678803356.0,286047002.6,N
1678803375.8,286047001.5,N
1678803395.7,286047002.6,N
1678803415.5,286047001.9,N
1678803435.3,286047001.9,N
1678803455.2,286047001.6,N
1678803475.0,286046999.9,N
1678803475.9,286046999.9,N
1678803495.8,286046999.7,N
1678803515.6,286047000.3,N
1678803535.4,286047001.2,N
1678803555.3,286046998.5,N
1678803575.1,286046999.5,N
1678803595.8,286046999.4,N
1678803615.7,286046997.6,N
1678803635.5,286046997.6,N
1678803655.4,286046995.0,N
1678803675.2,286046996.3,N
1678803695.0,286046994.5,N
1678803695.9,286046994.5,N
1678803715.8,286046995.5,N
1678803735.6,286046993.5,N
1678803755.4,286046994.3,N
1678803775.3,286046991.8,N
1678803795.1,286046994.8,N
1678803815.9,286046991.8,N
1678803835.7,286046991.8,N
1678803855.5,286046992.5,N
1678803875.4,286046992.6,N
1678803895.2,286046993.4,N
1678803915.0,286046992.0,N
1678803916.0,286046992.0,N
1678803935.8,286046990.7,N
1678803955.6,286046990.1,N
1678803975.5,286046992.4,N
1678803995.3,286046992.5,N
1678804015.1,286046992.0,N
1678804035.9,286046992.7,N
1678804055.7,286046990.3,Y
1678804075.6,286046996.9,P
1678804095.4,286046998.3,N
1678804115.2,286046998.8,N
1678804135.1,286046998.6,N
1678804136.0,286046998.6,N
1678804155.8,286046998.8,N
1678804175.6,286046999.0,N
1678804195.5,286046999.1,N
1678804215.3,286046998.8,N
1678804235.2,286046996.8,N
1678804255.9,286046997.4,N
1678804275.7,286046996.7,N
1678804295.6,286046999.3,N
1678804315.4,286046997.2,N
1678804335.2,286046997.4,N
1678804355.1,286046997.4,N
1678804356.0,286046997.4,N
1678804375.8,286046998.0,N
1678804395.7,286046999.5,N
1678804415.5,286046999.0,N
1678804435.3,286046997.7,N
1678804455.2,286046995.8,Y
1678804475.0,286046997.5,P
1678804475.9,286046997.5,P
1678804495.8,286046995.0,P
1678804515.6,286046995.4,Y
1678804535.4,286046998.5,P
1678804555.3,286046998.1,N
1678804575.1,286047000.7,N
1678804595.8,286046998.4,N
1678804615.7,286046998.6,N
1678804635.5,286047000.3,N
1678804655.4,286047000.7,N
1678804675.2,286047000.8,N
1678804695.0,286046998.7,N
1678804695.9,286046998.7,N
1678804715.8,286046999.2,N
1678804735.6,286046998.2,N
1678804755.4,286047000.0,N
1678804775.3,286047001.2,N
1678804795.1,286046999.4,N
1678804815.9,286046998.3,N
1678804835.7,286046998.9,N
1678804855.5,286046999.1,N
1678804875.4,286046998.6,N
1678804895.2,286047000.3,N
1678804915.0,286047002.2,N
1678804915.9,286047002.2,N
1678804935.8,286047000.9,N
1678804955.6,286047000.5,N
1678804975.5,286047002.4,N
1678804995.3,286046998.2,N
1678805015.1,286047001.2,N
1678805035.9,286047000.5,N
1678805055.7,286047001.2,N
1678805075.5,286046998.7,N
1678805095.4,286047001.0,N
1678805115.2,286047000.2,N
1678805135.0,286047000.7,N
1678805136.0,286047000.7,N
1678805155.8,286047000.3,N
1678805175.6,286046999.0,N
1678805195.5,286046997.0,N
1678805215.3,286046996.9,N
1678805235.1,286046999.5,N
1678805255.9,286046997.2,N
1678805275.7,286046997.1,N
1678805295.6,286046998.3,N
1678805315.4,286046998.2,N
1678805335.2,286046998.4,N
1678805355.1,286046998.1,N
1678805356.0,286046998.1,N
1678805375.8,286047000.3,N
1678805395.6,286047000.6,N
1678805415.5,286047000.6,N
1678805435.3,286047000.5,N
1678805455.2,286047001.1,N
1678805475.9,286046998.2,N
1678805495.7,286047000.7,N
1678805515.6,286046998.5,N
1678805535.4,286047000.6,N
1678805555.2,286047000.0,N
1678805575.1,286046998.4,N
1678805576.0,286046998.4,N
1678805595.8,286046998.1,N
1678805615.7,286046996.7,N
1678805635.5,286046996.9,N
1678805655.3,286046998.6,N
1678805675.2,286046998.6,N
1678805695.0,286046997.0,N
1678805695.9,286046997.0,N
1678805715.8,286046999.0,N
1678805735.6,286046999.3,N
1678805755.4,286046997.6,N
1678805775.3,286046996.2,N
1678805795.1,286046993.5,Y
1678805815.9,286046996.1,P
1678805835.7,286046995.0,P
1678805855.5,286046996.5,N
1678805875.4,286046999.3,N
1678805895.2,286046998.6,N
1678805915.0,286047011.9,Y
1678805916.0,286046999.0,P
1678805935.8,286047000.4,N
1678805955.6,286046998.1,N
1678805975.5,286047002.8,N
1678805995.3,286047001.0,N
